Volver al catálogo

STARLINK-30386

ActivoComunicacionesVLEO
NORAD 57816·PAYLOAD·🇺🇸 United States

Lanzado Sep 9, 2023 desde Cape Canaveral Space Force Station

Loading…

Próximos Pases (próximas 24 horas)

TLE

ActualizadoSource: CelesTrak SupGP

Época: Sep 14, 2026, 21:31 UTC

1 57816C 23138J   26257.89701389  .00038836  00000+0  14068-2 0  2576
2 57816  43.0009 245.8893 0001584 261.3682  48.1712 15.27554415    13

Sigue STARLINK-30386 en tiempo real con AllMySat

Download on the App Store